This is the latest recevied weather packets stored in our database for station/object PE1BMM-13. If no packets are shown the sender has not sent any weather packets the latest 10 day(s).
| Time | Temp. | Humidity | Pressure | Rain* | Wind** | Luminosity | Snow |
|---|---|---|---|---|---|---|---|
| 1778133055 | 9.44° C | 83% | 1015.9 hPa | 0 mm | - | - | - |
| 1778132755 | 9.44° C | 83% | 1015.9 hPa | 0 mm | - | - | - |
| 1778132456 | 8.89° C | 84% | 1015.9 hPa | 0 mm | - | - | - |
| 1778132152 | 8.89° C | 85% | 1015.7 hPa | 0 mm | - | - | - |
| 1778131852 | 8.33° C | 86% | 1015.7 hPa | 0 mm | - | - | - |
| 1778131551 | 8.33° C | 87% | 1015.6 hPa | 0 mm | - | - | - |
| 1778131252 | 8.33° C | 88% | 1015.7 hPa | 0 mm | - | - | - |
| 1778130951 | 7.78° C | 89% | 1015.5 hPa | 0 mm | - | - | - |
| 1778130652 | 7.78° C | 89% | 1015.5 hPa | 0 mm | - | - | - |
| 1778130351 | 7.22° C | 90% | 1015.5 hPa | 0 mm | - | - | - |
| 1778130050 | 6.67° C | 90% | 1015.4 hPa | 0 mm | - | - | - |
| 1778129750 | 6.67° C | 91% | 1015.4 hPa | 0 mm | - | - | - |
| 1778129545 | 6.67° C | 91% | 1015.3 hPa | 0 mm | - | - | - |
| 1778129152 | 6.11° C | 91% | 1015.2 hPa | 0 mm | - | - | - |
| 1778128848 | 6.11° C | 91% | 1015.3 hPa | 0 mm | - | - | - |
| 1778128546 | 6.11° C | 91% | 1015.2 hPa | 0 mm | - | - | - |
| 1778128247 | 6.11° C | 91% | 1015.1 hPa | 0 mm | - | - | - |
| 1778127947 | 5.56° C | 91% | 1015.1 hPa | 0 mm | - | - | - |
| 1778127647 | 5.56° C | 91% | 1015 hPa | 0 mm | - | - | - |
| 1778127341 | 5.56° C | 91% | 1015 hPa | 0 mm | - | - | - |
| 1778127035 | 5.56° C | 91% | 1015.1 hPa | 0 mm | - | - | - |
| 1778126729 | 5.56° C | 91% | 1015 hPa | 0 mm | - | - | - |
| 1778126423 | 5.56° C | 91% | 1015.1 hPa | 0 mm | - | - | - |
| 1778126117 | 5.56° C | 91% | 1015.1 hPa | 0 mm | - | - | - |
| 1778125812 | 5.56° C | 91% | 1014.9 hPa | 0 mm | - | - | - |
* Rain latest hour (hover to see other rain measurements)
** Current wind speed in m/s (hover to see current wind gust speed)